Wind_Speed
60 62 64 66 67 69 70 71 73 74 74 75 76 76 77 75 74 75 76 76 74 71 70 72 72 71 72 72 74 76 76 76 75 75 75 75 76 77 78 80 82 83 85 86 88 89 91 92 94 95 97 98 100 101 103 104 105 106 108 109 110 112 113 115 115 116 116 116 117 118 119 119 120 121 122 123 124 124 125 126 126 126 126 127 128 128
63 65 67 68 69 70 72 73 74 75 76 77 78 78 78 77 75 75 77 77 76 74 72 72 72 71 72 71 71 72 73 74 74 74 73 73 74 75 76 78 79 80 82 83 84 86 88 89 91 92 93 95 96 97 98 100 101 102 104 105 106 107 109 109 109 109 110 110 111 112 113 114 114 115 117 118 119 121 122 123 124 124 125 125 126 127
65 67 68 69 70 71 73 74 75 77 79 79 80 80 79 79 76 74 76 77 78 77 73 73 73 72 72 71 71 71 71 72 72 72 72 72 72 73 74 75 76 77 78 80 81 83 85 87 88 89 90 91 91 92 94 95 97 98 100 101 101 102 103 104 104 105 105 106 107 107 107 107 107 108 109 111 112 114 116 118 119 121 123 124 124 125
67 69 70 71 72 73 74 75 76 78 80 81 81 81 81 81 80 77 75 75 77 78 76 74 73 72 72 72 71 71 70 70 70 70 70 70 70 71 72 73 74 75 76 78 80 81 82 83 84 85 85 86 87 88 89 90 92 93 95 96 96 97 98 99 100 101 101 102 103 103 103 102 103 103 105 106 108 110 112 114 115 116 118 120 121 123
69 71 72 73 74 75 76 76 77 79 81 82 83 83 83 82 83 82 80 77 76 77 78 76 74 72 73 73 72 71 70 69 69 70 70 69 70 70 71 72 73 74 75 77 78 79 80 81 81 81 82 83 84 85 86 87 89 90 91 91 92 92 93 95 96 96 96 97 97 98 98 98 99 99 101 103 106 108 110 111 113 114 115 116 117 119
70 71 73 75 76 77 78 78 79 81 82 83 85 85 85 84 84 85 84 81 78 77 78 78 75 73 73 74 73 71 70 69 69 69 69 69 69 69 70 71 71 73 74 75 76 77 77 78 79 79 80 80 81 82 84 86 87 87 87 88 89 90 90 91 92 92 93 93 94 94 94 94 95 96 98 100 102 104 106 108 109 111 112 113 114 115
71 72 74 76 77 79 80 80 82 83 84 85 87 87 87 87 87 87 87 85 83 80 80 80 78 74 73 74 74 71 69 69 69 68 67 67 67 68 69 69 70 71 72 73 73 74 75 76 76 77 77 78 79 80 83 84 85 85 85 86 87 88 89 90 90 91 91 91 91 92 91 91 93 96 98 99 100 101 102 103 104 106 107 109 110 112
71 73 76 77 79 80 81 82 84 85 86 88 89 89 89 88 88 88 87 87 85 82 81 81 79 74 71 73 72 69 67 66 66 66 66 66 66 67 68 68 69 70 70 71 72 73 73 74 74 75 75 77 78 80 82 83 82 83 84 85 86 87 88 88 88 88 87 88 88 89 90 90 93 96 97 97 98 99 100 101 102 103 104 105 106 108
73 75 77 78 80 81 83 84 86 87 89 90 90 91 91 90 90 89 88 87 85 83 81 80 78 72 69 71 71 68 68 67 66 66 66 66 66 66 67 67 68 69 69 70 70 71 72 72 73 74 75 76 77 79 80 81 81 81 82 83 84 85 85 85 84 83 82 83 85 86 87 88 90 92 92 91 94 97 99 100 100 101 102 103 104 105
76 77 78 80 81 82 85 87 88 90 92 93 93 92 92 90 90 89 88 86 84 83 82 81 79 74 69 69 71 70 69 68 68 67 67 66 67 66 67 67 68 68 68 69 69 70 70 71 72 73 75 75 76 77 77 79 80 81 81 82 83 84 84 83 81 80 80 82 83 84 84 85 86 87 88 89 91 94 96 96 96 97 98 99 101 102
77 78 79 81 82 83 86 88 91 93 95 96 96 94 92 91 90 89 87 85 85 84 85 83 80 77 71 68 70 68 67 67 66 66 66 66 66 66 66 66 66 66 66 67 67 69 70 70 72 73 73 73 72 73 74 76 78 79 78 78 78 80 81 80 78 78 79 80 81 82 81 82 83 84 86 88 89 91 92 93 93 94 94 94 96 97
78 80 81 82 84 85 87 89 92 96 97 98 100 99 97 93 91 89 86 84 84 85 85 83 78 75 72 69 69 68 67 67 66 66 65 65 65 65 65 64 64 64 64 65 66 66 68 68 70 71 71 69 68 69 70 72 74 74 74 73 73 75 76 75 74 75 76 76 77 77 77 78 79 81 83 83 85 86 87 88 90 91 92 92 93 93
80 82 84 85 88 89 90 91 92 95 98 101 103 104 104 101 97 94 91 85 83 85 86 84 79 74 71 71 70 69 69 69 68 67 66 65 65 64 64 63 62 63 63 65 65 65 66 67 67 68 67 66 66 67 68 69 70 70 69 68 68 70 72 72 71 72 73 73 73 73 73 74 76 77 78 79 81 82 83 84 85 87 89 89 90 91
83 84 87 90 92 95 95 96 96 98 101 105 107 108 109 109 107 104 100 92 86 86 87 86 81 75 71 71 70 69 68 68 67 67 66 65 64 63 62 61 61 61 62 63 63 63 64 65 65 65 65 64 64 64 65 66 66 67 66 65 65 66 68 68 68 68 68 69 69 69 70 71 73 74 75 77 78 80 81 82 83 84 85 85 85 86
87 88 92 94 96 98 100 101 101 103 105 107 109 111 112 112 111 108 105 100 92 87 87 86 82 77 73 71 70 68 67 66 65 65 64 64 63 62 60 59 59 60 60 61 61 61 61 62 62 62 62 62 62 62 63 63 64 64 64 63 62 64 64 64 63 63 63 64 64 65 66 67 69 70 72 74 75 77 79 80 82 83 84 83 82 81
91 93 95 97 99 101 103 104 105 106 107 108 110 111 112 113 112 108 105 101 94 88 87 86 81 76 73 71 70 69 67 66 65 64 64 63 62 62 60 59 59 59 60 60 59 58 58 59 60 60 60 60 60 61 61 61 61 61 61 60 60 61 60 59 58 58 59 60 61 63 63 64 65 66 68 70 71 73 75 77 79 80 81 82 81 79
93 96 98 99 101 102 104 107 108 109 110 111 111 111 111 112 114 112 108 103 96 89 87 88 84 78 76 74 72 71 69 67 66 65 64 63 63 63 62 61 61 61 61 60 59 57 56 57 58 58 58 57 57 58 58 58 58 59 59 58 58 57 56 56 56 56 56 57 59 60 60 61 61 62 64 65 66 69 71 72 74 75 77 78 78 77
93 97 100 101 102 104 106 108 110 111 112 113 113 114 113 111 113 115 114 109 103 95 89 90 89 84 81 79 77 75 73 70 67 66 65 65 64 64 63 61 61 61 61 60 59 57 56 56 56 56 56 56 56 56 56 55 55 56 56 55 54 54 54 54 53 54 54 55 56 57 57 57 58 59 60 61 62 64 66 68 69 70 72 73 74 75
95 98 101 104 105 106 107 108 109 110 111 113 115 116 116 114 113 115 118 116 111 104 95 90 89 87 83 81 79 77 74 70 67 65 64 63 63 62 61 59 58 58 58 57 56 55 54 55 54 54 54 54 55 55 54 53 54 55 54 53 52 52 52 52 52 51 52 53 53 54 54 54 56 57 58 58 60 61 63 64 65 66 67 69 70 71
97 100 104 106 108 108 109 110 110 110 112 114 116 117 117 117 114 112 114 115 113 109 101 94 90 88 86 84 80 77 74 70 67 64 62 60 60 59 57 55 54 53 53 53 52 51 51 51 51 51 51 51 51 52 52 51 52 52 52 51 50 50 50 50 50 50 50 50 50 51 51 52 54 55 55 56 58 59 60 60 61 61 63 65 66 67
98 102 105 107 108 110 111 113 114 114 115 116 118 119 119 119 116 111 109 110 109 107 105 100 93 89 88 87 83 80 76 72 67 63 61 60 59 58 57 55 54 52 52 51 50 49 48 47 47 47 48 48 48 48 49 50 50 49 49 48 47 47 47 48 48 48 49 48 47 47 47 49 51 52 53 54 56 57 57 56 56 57 59 61 63 64
98 102 105 108 109 111 112 114 115 115 116 118 119 121 122 121 120 116 111 109 106 104 103 102 97 91 89 88 86 83 79 75 72 67 64 63 62 61 61 59 58 55 53 51 50 49 47 45 44 44 45 46 46 46 47 48 48 46 45 45 44 44 45 45 45 45 45 45 44 43 44 46 48 50 51 52 53 54 54 54 54 54 55 57 58 60
99 101 104 107 110 111 112 111 112 113 115 117 120 121 121 121 121 120 118 114 109 103 98 96 95 92 89 89 88 86 84 82 79 75 70 67 65 64 62 60 59 58 56 53 50 48 46 44 42 42 43 45 45 45 45 46 45 43 42 42 42 42 43 42 42 42 41 41 41 41 41 43 45 47 48 50 51 51 51 52 52 52 53 54 55 56
101 103 105 107 108 109 110 111 112 114 116 118 120 121 121 120 119 119 118 116 112 106 97 91 91 91 90 91 92 92 89 86 81 76 71 66 63 62 60 58 57 57 55 53 51 48 46 44 43 42 43 44 44 43 42 42 41 41 40 40 40 40 41 40 39 37 37 37 38 38 39 41 43 44 46 47 49 50 50 49 49 50 51 52 52 53
104 107 110 112 113 113 114 116 116 116 118 120 122 123 123 122 120 118 117 114 111 107 100 92 91 94 94 94 93 91 88 85 80 75 70 65 61 59 59 58 56 55 53 51 49 47 45 43 43 42 42 43 42 41 40 39 39 38 38 38 39 39 38 37 36 35 34 35 35 35 37 39 40 41 43 45 46 47 48 48 46 47 48 50 49 49
104 109 113 116 120 122 124 124 123 121 120 121 122 123 123 123 123 121 118 115 111 109 107 103 100 98 96 93 90 87 84 80 77 74 71 67 64 60 58 57 55 53 51 48 47 46 44 43 41 41 40 41 40 39 38 38 37 37 37 37 37 36 36 35 34 33 32 31 32 33 34 36 37 38 40 42 42 43 45 46 44 44 45 47 47 46
104 108 112 116 120 123 126 126 126 124 123 122 122 123 124 124 124 122 120 118 114 112 113 112 107 103 100 96 92 87 82 78 76 74 71 68 64 60 58 57 56 54 51 49 47 47 45 43 41 39 39 39 39 38 37 37 37 36 36 36 35 34 33 33 32 31 29 29 29 29 31 33 33 33 35 38 39 39 41 43 43 43 44 45 45 44
103 106 110 113 117 120 123 124 125 124 124 125 125 125 126 125 124 123 122 122 121 118 115 112 109 105 102 99 94 89 85 81 79 77 75 72 68 64 61 60 58 56 54 52 50 48 47 45 43 41 39 38 38 37 36 35 36 36 35 34 32 31 31 30 30 29 28 27 27 27 28 30 31 31 31 34 34 35 38 41 42 43 44 44 43 42
103 106 108 111 114 117 121 123 124 123 124 125 126 126 127 126 126 126 127 127 127 125 120 115 112 109 104 99 95 92 90 87 84 82 80 77 73 68 64 61 59 56 54 53 51 49 48 46 44 43 40 39 38 37 36 36 36 35 34 32 30 29 29 28 28 28 28 27 26 25 26 27 28 28 28 29 30 32 35 39 41 42 42 42 42 41
103 105 108 110 112 115 119 121 123 123 123 124 125 126 127 127 129 130 131 130 129 127 124 120 115 111 108 104 100 97 94 90 87 84 82 78 73 69 65 61 58 56 55 53 52 50 48 46 45 43 41 40 38 37 37 36 35 33 31 30 29 28 28 27 27 27 27 27 27 26 25 25 25 26 26 26 27 31 34 37 40 40 39 40 40 40
103 105 107 109 111 114 117 120 121 123 124 123 124 126 128 130 133 134 134 133 130 127 125 122 116 112 110 108 105 101 96 91 85 82 80 78 74 70 66 62 59 57 55 54 52 51 49 47 45 44 42 40 39 38 37 35 33 31 30 30 30 29 28 28 27 27 27 27 27 27 26 25 25 25 25 24 26 30 33 35 36 37 36 36 37 37
102 105 107 109 111 113 116 119 121 122 123 124 125 128 131 135 137 137 137 136 134 130 127 123 119 115 112 110 106 101 96 91 86 81 79 78 75 71 67 64 61 58 55 54 52 51 49 48 46 45 43 41 40 38 36 33 32 30 30 29 29 29 28 27 26 25 25 25 26 26 26 25 24 24 24 24 25 28 31 31 32 33 33 32 33 35
101 105 108 110 113 114 116 120 122 123 124 127 130 132 135 137 138 139 138 137 136 134 130 127 123 119 115 111 107 102 97 92 89 85 82 80 77 74 70 66 63 59 56 54 52 51 49 48 46 44 43 41 39 37 35 33 32 31 30 29 28 27 26 26 24 23 23 22 23 24 24 23 23 23 22 22 23 25 27 27 28 29 29 29 30 32
101 104 108 112 115 117 118 120 122 126 129 131 133 134 136 137 137 138 139 137 136 135 133 130 127 122 117 113 110 105 101 96 92 89 86 84 81 77 72 67 64 61 59 56 54 53 50 48 46 44 42 40 38 36 34 33 32 31 30 29 28 27 26 25 24 23 22 22 22 22 22 21 22 21 21 21 21 22 23 23 25 27 27 27 28 29
100 103 107 112 115 118 120 121 124 128 130 131 132 133 135 136 137 138 139 139 139 138 136 133 130 125 120 116 112 109 105 100 96 92 89 87 84 80 76 71 67 63 61 60 58 57 54 52 49 47 44 42 39 37 36 34 33 31 30 29 28 27 27 26 25 24 23 22 22 21 21 21 21 20 20 20 20 20 20 21 22 24 25 25 26 26
100 103 107 112 115 118 120 122 125 127 128 130 131 133 135 138 140 141 142 143 144 143 140 136 132 128 122 116 113 111 108 104 99 95 92 88 86 82 77 72 68 66 63 61 60 58 57 54 52 50 47 44 42 40 38 36 34 32 31 30 29 28 27 27 26 25 24 22 22 21 21 21 20 20 20 19 19 18 18 18 19 21 22 22 22 23
101 103 107 112 116 119 121 122 123 125 128 131 133 135 136 139 142 144 145 145 145 144 141 137 133 129 124 118 113 111 109 107 103 98 94 89 86 82 78 73 69 67 65 63 60 58 56 54 51 49 47 45 43 41 39 37 36 34 33 31 30 28 27 27 26 25 24 23 22 21 21 20 20 19 19 18 18 17 17 17 18 19 19 20 20 21
102 104 108 112 116 120 123 124 125 126 129 132 135 137 138 139 140 141 143 144 143 141 140 139 135 131 127 121 116 111 109 107 104 99 95 90 86 83 81 77 71 67 65 64 62 60 57 55 52 50 47 45 43 41 39 37 35 34 32 31 29 28 27 26 25 24 24 23 22 21 20 19 18 17 17 17 17 17 17 17 18 18 19 19 20 21
102 104 107 111 115 119 123 127 129 130 131 133 135 137 139 140 140 139 139 140 141 142 142 141 139 135 131 127 121 115 111 108 104 100 96 92 88 85 82 80 75 71 68 65 64 62 59 56 54 50 48 45 43 41 39 37 35 33 31 30 29 28 26 25 24 24 23 22 21 20 19 18 17 16 15 15 15 16 16 17 18 18 19 19 20 20
102 103 105 109 114 118 122 127 131 132 133 134 136 136 137 139 139 139 139 141 143 145 145 144 143 140 136 132 127 122 116 111 108 103 99 96 93 89 86 83 79 74 71 68 66 63 60 57 54 51 48 46 43 41 38 36 35 33 32 30 29 28 27 26 25 24 22 21 20 19 18 17 16 15 14 14 14 15 15 16 17 18 18 19 20 20
101 103 104 108 112 116 120 124 129 132 132 133 134 135 135 135 136 139 142 144 146 147 148 147 146 144 141 137 132 127 121 116 112 108 104 100 97 93 90 87 83 78 73 70 67 64 61 58 55 52 49 47 44 41 39 37 36 34 33 31 29 28 27 25 24 23 22 21 20 19 18 17 16 16 15 14 14 14 15 15 15 16 17 18 19 20
102 104 105 107 110 114 118 121 126 129 130 129 130 133 135 136 137 140 144 146 147 148 149 149 147 146 143 140 136 131 125 120 115 112 108 103 99 96 93 91 88 83 78 73 69 67 63 60 56 53 51 48 46 44 42 40 38 36 34 32 30 29 27 26 25 24 23 22 21 20 19 18 17 16 15 14 14 14 14 14 15 15 16 16 17 18
103 105 106 108 111 114 117 122 126 130 131 130 130 133 136 139 141 143 144 146 147 147 149 149 149 147 145 142 138 133 128 122 117 113 109 106 102 99 96 93 89 86 81 76 72 69 66 62 58 55 53 51 49 47 44 41 39 37 35 33 32 31 29 27 26 25 24 23 22 21 20 19 18 17 16 15 14 14 14 14 14 14 14 15 16 16
104 106 107 110 113 116 119 123 128 132 134 133 132 134 138 140 143 145 146 146 146 147 148 149 149 148 146 143 139 135 130 124 119 114 111 107 104 100 97 94 90 87 83 78 74 71 68 64 61 58 55 53 51 48 46 43 40 38 36 35 34 33 31 29 27 26 26 25 23 22 21 20 19 18 17 16 15 15 14 13 13 13 13 13 14 15
105 107 109 110 114 117 120 123 127 132 135 135 134 135 137 139 141 144 145 146 147 147 148 149 150 149 147 144 141 137 133 127 121 116 112 109 105 101 97 94 91 87 84 80 76 72 70 66 63 59 56 54 52 50 48 45 43 41 38 36 35 34 32 30 28 27 26 25 24 23 23 22 20 19 18 17 16 15 14 14 13 13 12 12 12 13
105 107 108 109 111 114 117 120 125 129 132 134 134 134 136 138 140 142 143 145 146 147 148 150 150 149 148 145 142 138 134 130 124 119 114 110 106 102 98 95 92 89 86 83 78 74 70 67 64 60 57 55 53 51 49 47 45 43 41 38 37 35 33 31 30 28 27 26 25 24 24 23 21 20 18 18 17 16 16 15 14 14 13 13 13 13
104 106 107 108 109 111 113 116 120 125 128 130 132 133 135 137 139 141 142 144 146 147 148 149 150 150 149 147 143 140 136 132 127 121 116 111 108 104 100 97 94 91 88 85 81 76 72 68 65 62 59 56 54 52 50 48 46 44 42 40 38 36 34 32 31 30 29 28 27 26 25 23 22 20 19 18 17 17 16 16 15 15 15 15 14 14
102 104 106 107 109 110 111 113 117 121 125 128 130 132 134 136 138 140 141 144 146 148 148 148 149 150 150 148 145 142 138 135 130 125 119 114 110 106 103 99 95 93 90 87 83 79 74 70 67 64 61 58 56 53 51 49 46 44 42 40 38 36 34 33 32 31 30 28 27 26 24 23 21 20 19 18 18 17 16 16 16 16 15 15 15 14
101 104 105 106 107 108 109 110 113 117 121 124 128 131 133 135 137 139 140 142 144 146 148 148 149 149 150 149 147 145 141 138 134 129 123 118 113 109 105 101 97 94 92 89 86 82 78 73 69 66 63 60 57 54 52 49 47 45 43 41 39 37 36 34 32 31 29 28 27 25 24 22 21 20 20 20 19 18 17 16 16 15 15 15 15 14
100 102 104 105 106 107 108 110 113 117 120 123 126 130 133 135 137 138 139 140 142 144 146 147 148 149 149 149 149 147 144 140 137 132 127 122 116 111 108 104 100 96 92 90 88 84 81 77 72 68 65 62 59 56 53 51 48 46 44 42 40 38 36 34 32 31 29 28 27 25 24 22 22 22 22 21 21 19 18 17 17 16 15 15 15 15
99 101 104 106 108 109 110 111 114 117 121 124 126 129 133 135 137 139 139 140 141 142 144 146 147 148 148 149 149 148 146 143 139 135 130 125 120 115 110 107 103 98 94 91 89 87 83 80 76 72 68 64 61 58 55 53 50 48 46 44 42 40 38 36 34 32 30 29 28 27 25 24 24 24 24 23 23 22 21 20 19 18 17 17 16 15
Wind_Direction
347 347 347 347 346 345 344 343 341 341 340 339 337 337 335 334 332 328 327 326 325 323 321 317 315 313 310 308 306 304 303 301 299 296 294 292 289 287 285 284 282 281 279 278 277 276 275 274 274 273 272 271 271 270 270 269 269 269 268 267 267 267 266 266 265 265 265 265 264 264 263 263 262 261 261 261 260 260 260 259 259 259 258 257 257 256
348 349 349 348 346 345 344 343 342 341 341 340 339 338 336 335 334 331 329 328 326 325 323 319 317 315 312 310 309 307 305 303 300 298 297 295 292 290 288 286 285 283 282 280 279 277 276 275 274 273 272 272 271 271 271 271 270 270 269 269 268 268 268 267 267 267 267 266 265 264 264 263 263 262 262 262 261 261 261 260 260 260 259 259 258 257
350 349 348 347 345 345 345 344 343 342 341 341 340 339 338 336 335 334 332 330 327 326 325 322 319 317 315 314 312 310 306 304 302 301 299 296 294 292 290 288 287 285 283 281 279 278 276 276 275 275 275 274 274 273 272 272 271 271 270 270 269 269 269 269 268 268 267 266 266 265 264 264 263 263 263 262 262 262 261 261 260 260 260 259 259 258
350 350 348 346 345 345 345 345 344 344 343 343 342 341 340 338 336 335 334 332 330 328 327 325 322 320 318 316 314 312 309 307 305 303 300 298 296 294 293 291 289 287 285 283 282 280 279 279 279 278 278 277 276 275 275 274 273 272 271 270 270 269 268 268 267 267 266 266 265 265 265 265 264 264 264 263 263 262 261 261 260 259 259 258 258 257
351 349 347 346 346 346 346 346 346 346 345 344 344 343 343 341 339 337 336 335 333 331 329 326 324 323 322 319 317 314 312 310 308 305 303 301 300 297 295 294 292 290 288 286 285 284 284 283 282 281 280 279 278 277 277 275 274 273 272 271 271 270 269 269 268 268 268 267 267 266 266 265 265 264 263 262 261 260 260 259 258 258 258 257 256 256
351 348 348 347 347 346 346 347 347 347 347 346 346 346 344 343 341 339 338 337 336 334 330 327 326 327 325 321 318 316 315 313 309 307 306 304 301 299 297 295 293 292 290 289 288 287 286 285 284 282 281 280 279 278 277 275 274 274 274 273 273 272 272 271 271 270 270 269 269 268 267 267 266 265 263 262 260 259 258 257 257 256 256 256 255 255
350 349 349 348 347 347 347 348 348 348 348 348 348 348 346 345 343 341 340 339 338 337 333 329 329 330 328 323 320 318 316 313 310 308 306 303 301 300 298 296 295 293 291 290 289 288 286 285 284 283 282 281 279 278 276 275 275 275 274 274 274 273 273 272 272 271 271 270 270 270 269 268 267 265 264 262 261 260 259 258 257 256 256 255 255 254
352 351 350 350 349 348 348 348 349 349 350 350 350 349 348 347 345 343 343 341 339 338 334 330 330 331 329 323 320 318 317 314 311 309 306 304 303 301 299 298 296 295 293 292 291 290 288 287 286 284 283 281 280 278 277 276 276 276 275 275 274 273 272 272 272 271 271 271 271 270 269 267 265 264 263 262 262 262 261 259 258 258 257 256 255 254
354 354 352 351 350 350 350 349 350 350 351 351 351 352 351 349 347 345 345 343 340 338 334 331 331 333 332 325 321 321 319 316 313 311 309 307 305 303 302 300 299 297 296 295 293 291 290 288 286 285 283 281 280 279 279 279 279 278 277 276 275 274 274 273 273 273 273 272 270 269 267 266 265 264 264 263 262 261 260 259 258 258 257 256 255 254
356 355 353 351 351 352 351 351 351 351 351 351 352 353 353 352 349 347 346 344 341 338 335 333 333 335 335 328 324 324 322 318 316 314 312 310 307 306 304 303 301 300 298 297 294 292 290 288 286 284 283 281 281 281 281 281 280 279 277 277 277 277 277 276 276 275 274 272 270 269 268 267 267 266 266 264 263 262 261 260 259 258 257 256 255 254
358 355 354 353 352 353 353 353 353 352 352 351 352 353 354 354 352 349 348 347 344 341 337 336 336 336 336 330 326 325 322 319 317 315 313 311 309 307 305 304 303 301 299 296 294 292 290 288 286 285 283 282 282 281 280 279 278 277 277 277 277 277 277 276 276 275 273 271 270 269 268 268 267 266 265 264 263 262 262 262 261 260 258 257 255 254
359 357 356 354 353 353 355 356 355 354 353 352 352 352 353 353 352 350 350 349 347 343 339 337 338 338 336 332 329 327 324 321 320 317 315 312 310 309 308 307 305 302 299 296 294 292 290 289 288 286 286 285 284 282 280 279 278 278 278 278 277 276 276 276 275 273 272 271 270 269 269 268 267 265 264 263 263 262 261 261 260 260 259 258 257 255
360 359 357 357 355 355 356 357 357 355 354 353 353 353 352 352 352 351 350 351 350 346 341 339 340 341 338 334 332 330 327 325 322 320 317 315 313 312 310 308 306 303 300 298 296 294 293 291 290 289 288 288 286 284 282 282 282 281 281 280 278 277 276 275 274 273 272 271 271 270 269 268 266 266 265 264 264 263 262 261 260 259 258 257 256 255
359 360 359 359 358 356 356 356 356 356 355 354 355 355 353 353 353 352 351 352 353 349 344 341 342 343 341 336 334 332 329 326 324 321 319 317 315 314 312 309 306 303 300 298 296 295 294 293 292 291 290 289 287 285 284 284 283 283 282 281 279 277 275 274 274 273 272 271 270 269 267 266 265 265 264 264 263 263 263 262 261 260 259 258 256 254
359 0 0 360 359 358 357 356 356 356 356 356 356 356 356 355 354 353 352 352 354 352 346 342 343 344 342 338 335 333 331 327 325 322 320 319 317 315 312 309 305 303 300 299 298 297 296 295 294 293 291 290 289 287 286 285 284 283 282 281 279 277 276 274 274 273 272 271 270 268 267 265 264 264 263 262 262 261 261 260 260 260 259 259 257 256
1 2 2 1 360 359 358 357 357 357 357 357 357 357 357 356 355 353 353 352 353 354 348 343 345 345 342 340 337 335 333 330 328 326 323 321 319 316 314 311 308 306 304 302 301 300 299 297 295 294 292 291 290 288 287 286 285 284 283 282 280 278 278 277 275 274 272 272 270 269 267 265 263 262 261 261 260 259 259 258 257 257 258 258 257 256
5 4 4 3 1 0 0 359 358 358 358 357 357 358 358 358 355 353 353 353 353 355 352 346 346 346 344 342 340 338 337 334 332 330 327 324 321 319 317 315 312 310 307 306 305 303 301 299 297 295 294 293 291 290 288 287 286 284 283 282 281 281 280 278 277 276 274 273 271 269 267 265 264 262 261 260 259 258 257 257 256 255 256 256 257 257
8 6 5 4 3 2 1 1 359 358 358 357 357 358 358 358 357 354 353 353 353 356 356 350 347 348 346 344 343 341 340 338 335 333 330 327 324 321 319 317 314 311 310 309 308 307 305 302 300 299 298 297 295 293 291 290 288 286 285 284 283 283 282 280 278 277 275 273 271 270 268 267 266 264 263 261 260 258 257 256 255 255 254 255 255 256
10 8 6 5 4 2 2 1 1 359 358 358 358 358 358 358 359 357 354 354 354 354 356 354 350 348 347 346 345 343 341 340 338 336 333 329 325 322 320 317 314 312 310 309 309 308 307 305 304 303 301 299 297 296 295 293 290 289 288 287 286 285 283 282 280 277 275 273 272 271 270 268 266 265 263 262 261 259 258 256 255 254 254 254 254 254
11 10 8 6 5 3 2 1 1 360 359 358 358 358 359 359 0 0 357 356 355 353 354 355 353 350 348 347 346 345 344 342 341 338 334 330 326 323 320 317 315 313 311 311 310 310 309 307 306 305 303 300 299 297 296 294 292 291 291 290 289 287 285 283 281 278 276 273 272 271 270 268 267 265 264 263 261 259 258 257 256 255 255 255 254 254
11 11 9 8 6 4 3 2 1 360 359 359 359 359 360 359 360 1 0 359 357 354 354 354 354 352 349 348 347 347 347 345 343 340 337 332 329 327 324 322 320 318 317 316 315 315 313 311 309 307 304 302 300 298 296 294 293 293 292 291 290 287 284 282 281 279 277 275 273 271 268 267 266 265 264 263 262 260 259 258 257 255 254 254 254 254
12 12 10 9 7 6 5 4 2 1 0 0 0 1 1 360 359 360 1 1 360 358 356 354 354 353 351 349 349 349 349 347 346 344 342 338 335 333 330 328 325 323 322 321 320 319 317 315 312 310 306 303 301 299 298 297 296 296 294 292 290 287 284 282 280 279 278 277 275 272 269 266 264 264 263 262 261 261 260 259 258 257 256 255 254 254
10 11 11 10 9 7 7 6 4 2 3 2 1 1 1 0 0 0 0 1 1 0 359 357 355 353 353 352 351 352 352 351 349 348 346 343 339 336 333 330 327 326 325 325 325 323 321 319 316 313 309 306 304 303 301 300 299 298 296 293 290 288 285 283 281 280 279 277 275 272 269 266 264 263 263 262 261 260 259 259 258 258 257 256 254 252
8 9 10 10 9 9 7 7 6 4 4 4 3 2 2 1 2 2 2 1 1 0 0 359 357 356 355 356 355 354 354 353 351 349 347 344 341 337 334 331 330 329 328 329 328 326 324 323 320 317 314 311 309 308 305 303 302 300 297 295 292 290 287 286 284 282 280 276 273 271 269 267 265 263 262 261 260 260 260 258 258 257 257 256 254 252
8 8 8 8 7 7 7 7 7 5 5 5 4 3 2 2 2 3 3 2 1 1 0 1 2 0 359 359 358 356 354 353 351 348 347 345 343 340 337 335 334 333 332 331 330 328 327 326 324 322 319 315 313 311 309 306 304 302 300 298 295 292 290 288 286 284 281 278 275 272 269 267 265 264 262 261 260 260 261 260 259 258 257 256 255 252
9 8 8 8 7 7 7 6 6 6 5 5 5 3 2 2 2 3 4 2 2 3 3 3 4 3 1 0 360 358 356 353 351 349 348 348 346 343 341 339 337 337 336 335 333 331 330 330 328 326 322 318 316 314 312 310 307 305 302 300 297 295 293 291 289 287 284 281 278 274 271 268 266 264 262 262 261 261 262 262 262 260 258 257 255 253
10 9 9 9 8 8 8 7 6 6 5 5 5 4 3 3 3 3 4 3 4 6 6 5 4 3 2 1 1 359 357 355 353 351 350 350 349 346 344 343 342 341 340 339 338 335 334 334 332 330 326 322 319 318 316 313 310 308 305 302 300 298 297 295 293 292 288 284 280 276 272 270 267 264 262 262 262 261 261 262 262 261 260 258 256 253
10 10 10 10 9 8 8 8 7 6 6 6 5 4 3 4 3 4 5 5 5 7 8 7 5 4 3 2 1 360 359 358 356 354 353 353 352 350 348 347 346 345 343 342 341 340 338 337 335 333 330 326 323 321 319 316 313 311 309 307 305 303 301 299 297 295 291 287 282 277 273 270 268 265 261 260 260 259 258 259 259 259 259 259 258 256
10 10 10 10 10 9 9 8 7 6 6 6 6 5 4 4 4 5 6 7 7 7 8 8 6 5 3 3 2 2 2 1 359 357 356 356 355 353 351 349 348 347 346 344 343 342 341 339 337 335 333 330 327 325 323 320 318 315 314 312 310 308 305 303 301 298 295 291 286 280 275 271 269 266 263 260 258 256 255 256 257 257 258 259 260 258
10 10 10 10 10 10 9 9 7 6 6 6 6 5 4 4 5 7 8 8 9 8 8 8 7 5 3 4 4 4 4 3 1 359 357 357 356 355 353 352 350 349 348 346 345 344 342 341 339 337 335 333 331 329 327 325 323 321 319 316 314 312 310 308 305 303 300 297 292 287 283 278 274 271 267 263 259 256 254 255 256 257 258 258 259 259
9 10 10 10 10 10 9 9 8 7 6 6 6 6 5 4 5 8 9 9 9 9 9 9 8 6 5 5 5 5 5 4 2 0 358 358 358 357 355 354 353 352 350 348 347 346 344 342 341 339 338 336 334 333 331 329 328 326 323 321 319 318 316 313 311 307 304 300 296 293 290 286 282 277 273 268 262 259 257 257 259 260 259 259 258 257
9 9 10 10 10 10 9 9 8 7 6 6 5 6 6 6 6 8 9 9 9 9 9 9 8 8 7 6 6 6 5 4 3 2 1 0 359 359 358 356 355 354 352 350 349 347 346 344 343 342 341 339 338 336 335 333 331 329 327 325 322 320 318 315 311 307 302 297 294 291 290 287 283 279 275 270 265 263 262 262 263 263 263 261 259 257
8 8 9 9 10 10 9 9 8 7 6 6 6 6 7 8 7 7 9 10 10 9 9 9 9 9 7 6 6 6 6 6 5 3 3 3 2 1 360 358 356 355 354 352 351 349 348 347 346 345 344 342 342 341 340 338 335 333 331 328 325 321 318 314 311 307 303 298 294 292 290 287 285 281 278 273 269 266 267 267 266 265 264 262 259 257
8 8 8 9 9 9 9 9 7 7 7 7 7 7 8 9 9 8 8 9 10 10 10 10 10 10 8 7 6 6 7 7 7 5 4 4 4 3 1 360 358 357 355 354 353 352 351 351 350 349 348 346 346 345 344 342 339 336 334 331 328 325 322 320 318 316 312 308 303 299 296 292 289 286 283 279 275 272 270 269 266 265 263 261 258 257
7 7 8 9 9 9 9 8 7 8 8 8 8 9 9 9 10 9 9 9 10 11 11 11 10 10 10 8 7 7 7 8 8 7 6 6 5 4 3 1 360 359 358 357 356 355 354 354 353 353 352 351 350 349 347 345 342 339 337 335 334 333 331 328 326 324 321 317 313 310 306 302 298 294 289 286 282 279 277 273 270 268 267 265 263 262
7 7 8 8 9 9 9 9 8 8 9 8 9 9 9 9 10 10 9 10 11 11 11 11 11 10 10 10 8 8 8 8 8 9 8 7 6 5 4 3 1 0 0 360 358 357 356 355 355 355 354 353 353 352 350 347 345 344 343 341 341 339 337 334 331 330 329 326 322 318 314 310 305 299 295 290 286 283 281 278 275 274 272 270 267 264
7 6 7 8 8 8 9 10 9 8 8 9 10 10 10 11 11 11 10 11 11 11 10 11 11 10 10 10 10 10 9 9 9 9 9 8 7 6 5 5 4 2 1 1 0 360 359 357 357 356 355 355 354 353 352 350 349 348 346 345 344 343 341 339 337 335 334 332 328 323 318 313 308 303 299 295 291 287 283 280 277 275 272 270 266 264
7 6 6 7 8 8 8 9 9 9 9 10 11 11 11 11 12 12 12 11 11 10 11 11 10 10 10 10 11 11 11 10 10 9 9 8 8 8 7 6 5 4 3 3 2 1 0 360 359 359 358 357 356 355 354 352 351 350 349 348 348 346 345 343 341 339 337 335 332 328 323 319 314 309 304 299 295 291 287 283 280 277 275 272 269 266
7 6 6 7 8 9 8 8 8 9 9 10 11 11 11 11 11 12 12 11 10 10 11 11 10 10 10 10 10 11 11 11 11 10 9 9 9 9 9 8 6 6 5 5 5 4 2 1 1 1 0 360 358 357 356 355 354 353 353 352 350 349 348 347 345 343 341 338 335 332 329 326 322 317 311 305 299 294 290 287 284 282 281 279 277 274
7 7 7 7 8 9 9 8 8 9 9 10 10 11 12 11 11 10 10 10 10 11 11 12 11 11 11 10 10 10 11 11 11 11 10 10 9 9 10 9 9 7 7 6 6 5 4 3 2 2 2 2 1 360 359 358 357 357 356 355 354 352 351 350 349 346 343 341 339 337 335 332 328 324 319 312 306 300 296 293 290 288 287 285 284 282
8 7 7 7 8 9 9 9 9 9 10 10 10 11 11 11 10 10 10 10 11 12 12 12 12 12 11 11 10 10 10 10 11 11 11 10 10 10 10 10 9 8 8 7 7 6 6 5 4 4 4 4 3 3 3 2 2 1 360 359 357 356 355 353 351 349 347 345 344 342 340 337 333 329 324 318 313 307 302 298 295 292 291 289 288 287
9 8 8 8 8 8 9 9 10 10 10 10 10 10 11 11 11 11 12 12 13 13 13 13 12 12 12 12 11 10 10 10 10 11 11 11 10 10 10 10 9 9 8 8 7 7 6 6 6 6 6 6 6 6 6 5 4 4 3 2 1 0 359 358 356 354 352 351 350 349 346 343 339 334 330 325 320 315 310 306 303 300 297 294 292 289
9 9 8 7 7 8 9 9 10 10 10 10 10 11 12 12 12 13 13 13 14 14 13 13 13 13 12 12 12 11 11 10 10 11 11 11 11 11 11 10 10 9 8 7 7 7 7 7 7 7 8 8 8 8 7 6 6 6 6 5 5 4 3 2 360 358 357 356 356 355 352 349 345 341 337 333 328 324 318 314 311 307 303 298 294 291
9 9 9 8 7 7 8 9 10 10 10 10 11 12 13 13 14 14 14 14 14 14 14 13 13 13 12 12 12 12 11 11 10 11 11 12 12 11 11 11 10 9 9 8 8 8 7 7 8 8 9 9 9 8 7 7 7 7 7 8 8 7 5 4 2 0 360 359 358 358 357 355 352 348 345 341 336 332 328 324 319 314 308 303 299 296
9 9 9 9 8 7 8 9 10 10 10 10 11 12 13 13 14 14 14 13 13 14 14 14 14 13 13 12 12 12 12 11 11 11 11 12 12 12 12 11 10 10 10 9 9 9 8 8 8 9 9 9 9 9 8 7 7 8 8 9 9 8 7 5 4 2 2 2 1 1 1 359 357 354 349 345 341 337 335 332 327 320 315 312 309 304
9 9 9 9 9 8 8 8 9 10 10 10 11 11 12 13 14 14 14 14 13 13 14 14 14 13 13 12 12 12 12 12 11 11 11 12 13 13 12 12 11 11 10 10 10 9 9 9 9 9 10 10 10 10 9 8 8 8 8 8 9 8 7 6 6 6 6 6 5 3 2 1 359 356 353 349 345 341 340 336 332 329 328 326 322 317
9 9 9 9 9 8 8 8 9 9 10 10 11 11 12 13 13 14 14 14 14 13 14 14 14 14 13 13 12 12 13 12 12 12 12 12 12 13 13 13 12 11 11 11 11 10 10 9 9 9 10 11 11 10 9 9 8 8 7 8 9 9 9 8 8 8 8 7 5 3 2 2 1 0 358 355 351 347 344 340 337 336 336 333 328 325
9 9 9 9 8 8 8 8 8 9 10 10 11 11 12 12 13 13 14 14 14 14 14 14 14 14 13 13 12 12 12 12 12 12 12 12 12 13 13 13 13 12 11 11 11 11 11 10 10 9 10 11 11 11 10 9 9 9 8 8 9 10 10 10 10 9 8 6 4 3 3 5 5 4 2 360 356 352 348 344 341 340 338 334 331 328
8 9 9 9 8 8 8 8 8 8 9 10 10 11 12 12 13 13 13 14 15 15 14 14 14 14 13 13 13 12 12 12 13 12 12 12 12 12 13 13 14 13 12 11 11 11 11 11 11 10 10 11 11 11 11 10 10 10 9 9 10 11 11 12 12 11 10 8 6 5 7 10 11 10 8 5 2 358 354 350 346 344 341 337 334 332
8 8 8 8 8 8 7 7 8 8 8 9 10 10 11 12 12 12 13 14 14 15 15 14 14 14 13 13 13 12 12 12 13 12 12 12 12 12 12 13 13 14 13 12 11 11 11 11 11 11 11 11 11 11 11 11 11 10 11 11 11 11 12 13 13 14 14 13 11 10 11 13 15 15 13 11 8 5 2 358 355 351 347 343 341 339
7 7 7 7 7 7 7 7 7 7 8 8 9 10 10 11 11 12 12 13 14 14 15 15 14 14 14 13 13 13 12 12 12 13 12 12 12 12 12 12 13 13 13 13 12 11 11 11 11 12 11 11 11 11 12 11 11 11 11 12 12 12 12 13 14 16 17 17 15 14 14 15 16 17 16 15 12 10 8 6 4 2 358 354 351 349
Height
10598 10591 10584 10575 10567 10559 10551 10542 10532 10524 10517 10507 10498 10488 10477 10470 10460 10446 10435 10426 10417 10413 10404 10389 10382 10375 10366 10357 10347 10336 10328 10321 10316 10311 10308 10304 10299 10294 10289 10283 10279 10274 10269 10265 10261 10257 10253 10250 10246 10243 10240 10237 10234 10231 10229 10227 10225 10224 10222 10220 10219 10218 10215 10214 10214 10214 10216 10218 10219 10220 10221 10222 10224 10226 10227 10229 10230 10232 10234 10235 10236 10239 10243 10247 10250 10253
10593 10586 10579 10571 10563 10555 10546 10537 10527 10517 10509 10500 10490 10480 10469 10459 10452 10438 10424 10416 10405 10399 10394 10380 10371 10365 10355 10346 10338 10328 10318 10309 10302 10297 10293 10288 10283 10277 10272 10267 10263 10258 10254 10250 10245 10241 10237 10233 10230 10226 10223 10221 10219 10216 10214 10212 10210 10207 10205 10203 10202 10201 10198 10197 10197 10198 10200 10201 10201 10202 10203 10204 10206 10209 10210 10211 10214 10215 10217 10219 10219 10221 10224 10227 10231 10234
10589 10581 10573 10566 10558 10549 10541 10531 10521 10510 10500 10492 10482 10472 10462 10450 10443 10435 10421 10408 10395 10386 10382 10371 10359 10352 10343 10334 10325 10316 10307 10298 10291 10285 10279 10273 10268 10263 10257 10252 10248 10243 10238 10234 10229 10225 10221 10217 10214 10211 10208 10206 10204 10202 10200 10197 10194 10191 10188 10186 10186 10185 10183 10182 10181 10181 10182 10183 10183 10183 10185 10187 10190 10192 10193 10195 10197 10199 10199 10201 10203 10204 10206 10208 10210 10213
10583 10576 10568 10561 10552 10543 10535 10526 10516 10504 10492 10483 10474 10463 10453 10440 10429 10425 10417 10405 10389 10374 10367 10358 10348 10341 10332 10323 10313 10303 10294 10286 10279 10272 10265 10259 10254 10249 10243 10238 10233 10227 10222 10218 10213 10209 10205 10202 10200 10197 10195 10192 10189 10187 10184 10182 10178 10175 10173 10171 10170 10169 10168 10167 10165 10165 10165 10165 10166 10166 10168 10171 10173 10176 10178 10179 10180 10181 10181 10182 10184 10185 10187 10189 10191 10193
10577 10571 10563 10555 10547 10538 10529 10520 10511 10501 10488 10476 10465 10454 10443 10431 10417 10407 10401 10396 10384 10368 10354 10344 10337 10331 10320 10309 10300 10291 10282 10275 10267 10258 10251 10246 10240 10234 10229 10223 10218 10213 10207 10203 10198 10194 10190 10187 10185 10183 10180 10178 10174 10171 10168 10165 10161 10158 10156 10155 10154 10153 10152 10151 10149 10149 10149 10149 10150 10150 10152 10156 10158 10160 10162 10162 10161 10161 10161 10162 10163 10165 10167 10169 10172 10175
10573 10566 10558 10549 10541 10532 10523 10515 10506 10496 10485 10473 10461 10448 10436 10423 10410 10397 10386 10379 10373 10362 10346 10332 10324 10320 10310 10296 10286 10279 10271 10263 10254 10246 10239 10233 10227 10221 10216 10210 10205 10199 10194 10189 10185 10181 10177 10174 10170 10167 10164 10162 10159 10156 10152 10148 10145 10143 10142 10140 10138 10136 10136 10134 10132 10133 10133 10132 10133 10134 10136 10140 10141 10142 10142 10141 10139 10140 10141 10142 10144 10147 10149 10151 10154 10157
10571 10562 10553 10543 10534 10526 10517 10508 10499 10490 10479 10468 10456 10443 10430 10416 10402 10389 10376 10365 10357 10349 10336 10321 10312 10308 10299 10285 10274 10267 10261 10252 10243 10236 10230 10223 10217 10210 10204 10199 10193 10188 10182 10177 10172 10168 10164 10160 10157 10154 10150 10146 10144 10141 10136 10131 10130 10129 10128 10126 10123 10122 10120 10118 10117 10117 10117 10116 10117 10118 10120 10123 10124 10122 10121 10119 10117 10120 10122 10124 10126 10129 10131 10133 10136 10139
10567 10557 10547 10538 10529 10520 10512 10503 10494 10484 10473 10461 10449 10437 10424 10410 10395 10382 10370 10356 10345 10338 10327 10313 10305 10302 10292 10276 10266 10260 10253 10245 10236 10228 10220 10213 10207 10200 10193 10188 10181 10175 10170 10165 10160 10155 10149 10145 10142 10139 10136 10131 10128 10124 10119 10116 10115 10114 10113 10111 10109 10107 10105 10103 10102 10103 10103 10102 10103 10103 10103 10105 10105 10101 10101 10103 10102 10102 10103 10105 10108 10110 10112 10114 10116 10120
10562 10553 10543 10535 10526 10515 10505 10497 10487 10478 10467 10456 10444 10431 10418 10405 10390 10377 10365 10351 10338 10330 10320 10308 10299 10295 10287 10268 10256 10250 10241 10232 10224 10216 10210 10202 10195 10188 10182 10176 10170 10163 10158 10153 10148 10142 10136 10132 10127 10124 10120 10117 10113 10109 10105 10102 10101 10099 10097 10095 10093 10090 10089 10088 10088 10088 10089 10087 10087 10087 10086 10087 10086 10083 10085 10089 10088 10085 10084 10086 10090 10091 10092 10094 10097 10100
10557 10549 10541 10532 10523 10512 10500 10490 10480 10469 10459 10448 10439 10427 10414 10400 10386 10372 10361 10347 10334 10321 10309 10299 10289 10283 10277 10260 10245 10239 10231 10221 10213 10205 10198 10191 10184 10177 10170 10164 10158 10152 10146 10140 10134 10129 10123 10119 10114 10110 10106 10103 10100 10097 10093 10090 10086 10084 10082 10081 10078 10075 10073 10073 10073 10073 10073 10071 10070 10070 10070 10070 10070 10069 10069 10070 10069 10067 10066 10069 10072 10073 10075 10078 10080 10082
10555 10547 10539 10529 10519 10510 10497 10484 10471 10460 10450 10440 10431 10424 10413 10399 10384 10369 10358 10343 10326 10311 10297 10287 10278 10269 10265 10254 10241 10232 10223 10213 10205 10197 10189 10181 10173 10167 10160 10154 10147 10141 10135 10128 10122 10116 10110 10105 10100 10096 10092 10090 10089 10086 10083 10078 10074 10071 10070 10069 10067 10064 10060 10060 10060 10059 10058 10057 10055 10055 10056 10056 10057 10055 10053 10052 10052 10051 10052 10054 10055 10056 10058 10061 10063 10065
10554 10544 10536 10527 10516 10507 10496 10481 10466 10453 10443 10433 10421 10411 10404 10397 10385 10370 10359 10344 10324 10305 10290 10281 10274 10264 10253 10243 10233 10224 10214 10204 10195 10187 10179 10171 10163 10156 10149 10143 10136 10130 10124 10116 10110 10104 10098 10093 10088 10083 10079 10078 10076 10073 10069 10065 10062 10059 10057 10057 10056 10053 10049 10047 10047 10046 10045 10044 10042 10042 10043 10043 10042 10040 10038 10038 10038 10037 10039 10040 10040 10040 10041 10043 10045 10047
10551 10542 10532 10521 10509 10498 10490 10481 10469 10454 10440 10427 10413 10398 10385 10378 10371 10358 10348 10340 10323 10301 10282 10271 10266 10259 10246 10232 10222 10213 10202 10192 10183 10175 10168 10160 10152 10146 10138 10132 10125 10117 10111 10103 10097 10092 10086 10081 10076 10071 10068 10065 10062 10059 10055 10052 10048 10046 10044 10043 10043 10040 10037 10035 10035 10033 10032 10030 10030 10029 10030 10029 10027 10026 10025 10025 10024 10024 10025 10026 10026 10025 10026 10028 10030 10032
10546 10538 10525 10513 10500 10487 10478 10470 10462 10449 10433 10416 10401 10387 10369 10354 10345 10334 10324 10321 10314 10295 10273 10259 10253 10249 10239 10226 10215 10206 10195 10186 10176 10166 10158 10150 10143 10136 10129 10122 10114 10107 10100 10093 10086 10081 10075 10069 10063 10059 10056 10053 10049 10046 10043 10040 10036 10034 10031 10030 10029 10027 10024 10023 10022 10021 10020 10019 10018 10017 10017 10016 10015 10014 10013 10012 10012 10011 10011 10012 10012 10011 10011 10013 10016 10018
10537 10530 10518 10506 10494 10481 10469 10459 10449 10438 10425 10410 10395 10379 10362 10346 10334 10322 10308 10301 10300 10288 10268 10254 10246 10238 10231 10220 10209 10200 10190 10179 10170 10160 10150 10142 10134 10126 10119 10112 10105 10097 10089 10082 10076 10071 10065 10059 10053 10048 10044 10041 10037 10034 10031 10028 10025 10022 10019 10017 10016 10014 10012 10012 10011 10010 10009 10008 10006 10005 10005 10004 10004 10003 10001 10000 10000 9999 9999 9999 9999 9998 9998 10000 10002 10004
10532 10522 10512 10501 10490 10478 10465 10453 10443 10433 10420 10407 10394 10379 10361 10343 10330 10322 10312 10299 10292 10284 10264 10248 10242 10233 10223 10214 10202 10192 10182 10170 10160 10150 10141 10132 10123 10114 10107 10099 10092 10084 10077 10071 10066 10061 10056 10050 10044 10039 10035 10031 10027 10024 10021 10017 10014 10011 10008 10006 10004 10002 10001 10000 10000 9999 9998 9997 9995 9994 9993 9993 9992 9992 9990 9989 9989 9988 9987 9986 9987 9987 9987 9988 9989 9991
10533 10520 10510 10500 10489 10478 10463 10447 10433 10423 10412 10400 10390 10379 10365 10345 10323 10308 10303 10295 10286 10281 10261 10238 10230 10225 10213 10203 10193 10181 10171 10160 10149 10139 10129 10119 10110 10101 10093 10085 10078 10070 10064 10058 10053 10049 10045 10040 10034 10030 10026 10023 10019 10014 10011 10007 10004 10000 9997 9995 9993 9991 9990 9989 9989 9988 9986 9985 9983 9982 9981 9981 9981 9980 9979 9979 9978 9976 9975 9975 9975 9976 9977 9978 9979 9981
10535 10521 10510 10500 10489 10476 10463 10448 10431 10417 10407 10395 10383 10373 10364 10352 10330 10300 10283 10276 10267 10264 10256 10233 10215 10208 10199 10189 10179 10168 10158 10150 10140 10129 10119 10108 10098 10090 10083 10076 10068 10060 10054 10048 10043 10038 10033 10029 10024 10019 10015 10011 10007 10003 9999 9996 9993 9989 9986 9985 9983 9981 9980 9979 9978 9977 9975 9973 9971 9970 9970 9970 9969 9968 9967 9967 9966 9965 9964 9964 9965 9966 9966 9967 9969 9971
10535 10523 10509 10497 10485 10473 10461 10449 10436 10422 10410 10395 10381 10368 10354 10341 10327 10300 10273 10257 10244 10239 10242 10233 10213 10200 10192 10181 10171 10162 10152 10143 10134 10123 10113 10103 10093 10084 10078 10071 10063 10055 10048 10042 10037 10031 10026 10020 10015 10010 10005 10001 9996 9991 9988 9985 9982 9978 9976 9974 9973 9972 9970 9968 9967 9966 9964 9962 9960 9959 9959 9959 9958 9957 9957 9956 9955 9954 9954 9953 9954 9956 9957 9958 9960 9962
10532 10521 10507 10494 10482 10471 10460 10450 10438 10425 10411 10396 10380 10367 10352 10337 10327 10310 10282 10258 10240 10226 10223 10222 10210 10194 10182 10174 10166 10157 10146 10137 10128 10119 10109 10099 10090 10080 10073 10066 10058 10051 10044 10037 10032 10026 10020 10014 10008 10003 9998 9993 9988 9983 9979 9976 9973 9969 9967 9965 9964 9962 9960 9957 9956 9954 9953 9952 9951 9950 9950 9949 9948 9947 9947 9946 9945 9944 9944 9944 9946 9948 9949 9949 9950 9952
10531 10520 10508 10497 10485 10471 10456 10440 10425 10412 10400 10390 10376 10359 10344 10330 10322 10316 10300 10275 10252 10229 10211 10205 10201 10191 10176 10165 10158 10149 10139 10130 10122 10112 10101 10090 10081 10071 10062 10054 10048 10042 10035 10029 10023 10018 10013 10007 10001 9996 9990 9985 9981 9976 9971 9968 9965 9963 9960 9958 9955 9953 9951 9948 9946 9944 9943 9942 9943 9942 9941 9940 9939 9938 9937 9936 9935 9935 9936 9937 9938 9939 9939 9940 9941 9944
10531 10521 10510 10498 10486 10472 10458 10443 10429 10414 10398 10383 10370 10354 10337 10321 10309 10301 10295 10282 10263 10241 10217 10198 10189 10183 10171 10158 10148 10139 10130 10119 10108 10099 10089 10077 10066 10057 10048 10040 10034 10029 10025 10020 10014 10009 10004 9999 9994 9988 9982 9977 9973 9969 9965 9960 9958 9955 9953 9950 9948 9945 9943 9940 9938 9936 9935 9934 9934 9934 9933 9931 9930 9929 9928 9927 9927 9927 9928 9928 9928 9929 9931 9932 9934 9936
10528 10523 10514 10501 10487 10473 10461 10451 10437 10421 10404 10386 10370 10357 10343 10327 10309 10289 10274 10264 10256 10245 10230 10210 10191 10179 10168 10154 10140 10128 10116 10104 10092 10083 10076 10066 10057 10048 10041 10033 10026 10019 10014 10010 10005 10000 9995 9991 9986 9981 9976 9970 9966 9962 9958 9954 9951 9948 9945 9943 9940 9937 9934 9932 9930 9929 9928 9927 9926 9925 9924 9922 9921 9921 9920 9919 9919 9919 9920 9920 9920 9922 9923 9923 9925 9927
10522 10516 10511 10505 10498 10486 10472 10457 10439 10418 10401 10385 10369 10357 10345 10330 10315 10296 10276 10260 10249 10239 10232 10220 10199 10179 10163 10146 10128 10114 10104 10095 10087 10079 10072 10064 10055 10045 10036 10029 10022 10014 10008 10002 9997 9992 9988 9983 9979 9974 9969 9963 9959 9956 9952 9948 9944 9940 9937 9935 9932 9929 9926 9925 9923 9922 9921 9920 9918 9917 9916 9915 9914 9913 9913 9913 9912 9911 9912 9912 9913 9914 9914 9915 9916 9918
10514 10503 10496 10488 10483 10476 10464 10450 10437 10419 10399 10381 10365 10351 10340 10327 10314 10301 10285 10269 10255 10240 10226 10215 10197 10174 10155 10141 10128 10115 10103 10093 10083 10075 10067 10059 10051 10041 10031 10022 10016 10009 10003 9997 9991 9986 9981 9977 9973 9968 9963 9957 9952 9949 9945 9941 9937 9934 9931 9928 9925 9922 9919 9917 9916 9914 9913 9912 9911 9910 9909 9908 9907 9907 9907 9906 9905 9905 9904 9905 9906 9907 9907 9907 9909 9911
10512 10498 10485 10472 10458 10445 10432 10420 10413 10406 10396 10383 10368 10353 10340 10325 10308 10294 10282 10269 10255 10235 10210 10191 10179 10167 10154 10144 10135 10123 10110 10097 10084 10072 10061 10051 10042 10034 10026 10018 10011 10004 9998 9993 9987 9981 9976 9973 9968 9963 9957 9950 9946 9942 9939 9934 9931 9928 9924 9921 9918 9915 9913 9911 9909 9907 9906 9905 9904 9903 9902 9901 9901 9901 9900 9899 9899 9899 9898 9898 9899 9899 9899 9899 9901 9903
10515 10500 10484 10470 10456 10442 10430 10418 10407 10398 10390 10381 10369 10355 10340 10325 10307 10293 10281 10265 10247 10226 10201 10180 10167 10159 10149 10137 10129 10122 10112 10099 10084 10069 10057 10047 10037 10028 10019 10011 10004 9998 9992 9987 9981 9975 9970 9966 9962 9957 9952 9945 9940 9936 9933 9929 9925 9921 9918 9915 9912 9909 9907 9905 9902 9901 9900 9899 9898 9897 9896 9895 9895 9895 9894 9893 9893 9893 9891 9891 9891 9891 9891 9892 9893 9895
10519 10505 10490 10475 10462 10449 10438 10426 10413 10400 10387 10375 10364 10351 10337 10324 10312 10297 10278 10254 10232 10215 10201 10186 10170 10156 10144 10134 10125 10116 10105 10091 10076 10063 10052 10041 10031 10022 10013 10005 9998 9992 9986 9980 9974 9969 9963 9959 9955 9951 9946 9940 9935 9930 9927 9923 9919 9915 9912 9909 9907 9904 9901 9899 9896 9895 9894 9893 9892 9891 9890 9889 9888 9888 9888 9887 9887 9886 9885 9884 9884 9884 9884 9884 9886 9888
10521 10509 10496 10483 10470 10456 10443 10431 10420 10407 10391 10375 10362 10349 10335 10323 10309 10290 10266 10242 10220 10203 10192 10181 10166 10153 10144 10136 10124 10109 10094 10080 10067 10054 10045 10036 10026 10018 10010 10003 9996 9989 9982 9975 9969 9964 9958 9953 9948 9944 9940 9935 9930 9925 9921 9917 9913 9909 9906 9903 9901 9899 9896 9893 9891 9889 9887 9886 9886 9885 9884 9883 9882 9881 9881 9881 9880 9880 9879 9877 9877 9877 9878 9879 9879 9881
10521 10510 10499 10487 10475 10461 10448 10435 10422 10409 10396 10381 10365 10351 10339 10323 10303 10280 10257 10239 10223 10206 10191 10177 10164 10152 10140 10127 10113 10100 10088 10077 10064 10052 10042 10035 10027 10017 10009 10001 9994 9986 9979 9972 9966 9960 9954 9949 9943 9938 9934 9929 9924 9920 9915 9911 9907 9904 9901 9898 9895 9893 9890 9888 9886 9883 9881 9880 9879 9878 9877 9876 9876 9875 9875 9875 9874 9874 9873 9871 9871 9872 9873 9874 9874 9875
10521 10511 10500 10489 10478 10466 10453 10442 10428 10411 10397 10385 10372 10357 10338 10316 10293 10272 10252 10236 10224 10210 10193 10179 10169 10155 10137 10119 10106 10096 10088 10080 10071 10059 10045 10033 10024 10015 10006 9998 9991 9984 9976 9969 9963 9956 9950 9944 9939 9933 9928 9923 9919 9915 9911 9907 9903 9899 9896 9892 9889 9887 9884 9882 9880 9878 9876 9874 9873 9872 9871 9870 9869 9869 9869 9869 9869 9868 9867 9867 9867 9868 9869 9869 9870 9870
10519 10511 10502 10491 10479 10467 10454 10441 10429 10415 10401 10387 10371 10350 10326 10300 10278 10262 10249 10233 10217 10204 10192 10181 10167 10150 10133 10120 10110 10102 10092 10082 10072 10061 10047 10034 10022 10013 10003 9995 9988 9982 9975 9967 9961 9954 9947 9940 9934 9929 9924 9919 9915 9911 9907 9903 9899 9895 9892 9889 9886 9883 9880 9878 9877 9875 9873 9871 9869 9867 9866 9865 9864 9864 9864 9864 9864 9863 9863 9863 9863 9863 9864 9865 9865 9865
10517 10508 10499 10488 10476 10466 10452 10436 10424 10414 10399 10378 10354 10332 10313 10296 10277 10262 10251 10239 10221 10204 10190 10176 10161 10146 10134 10122 10112 10102 10092 10081 10067 10055 10044 10033 10020 10009 10000 9992 9985 9978 9972 9966 9959 9953 9946 9939 9932 9926 9921 9916 9912 9908 9903 9899 9895 9892 9889 9886 9883 9880 9877 9875 9873 9871 9869 9867 9865 9863 9862 9861 9860 9859 9859 9859 9859 9859 9859 9859 9859 9858 9859 9859 9860 9860
10515 10504 10494 10482 10470 10457 10446 10436 10425 10406 10383 10361 10345 10328 10312 10298 10284 10267 10251 10239 10228 10213 10196 10180 10165 10151 10136 10120 10107 10096 10086 10075 10063 10050 10038 10028 10019 10009 10000 9991 9984 9976 9969 9962 9956 9949 9943 9937 9931 9925 9920 9914 9909 9905 9900 9896 9892 9888 9885 9882 9879 9876 9873 9871 9868 9866 9864 9862 9861 9859 9858 9857 9855 9855 9854 9854 9854 9854 9854 9854 9854 9853 9853 9854 9855 9855
10514 10504 10494 10483 10471 10457 10445 10432 10416 10396 10377 10364 10352 10336 10319 10305 10292 10275 10256 10239 10225 10210 10195 10180 10166 10151 10136 10121 10106 10093 10081 10071 10062 10051 10038 10027 10018 10009 10000 9991 9983 9976 9968 9960 9952 9944 9938 9932 9926 9921 9916 9911 9906 9902 9897 9893 9889 9885 9882 9878 9875 9872 9869 9866 9864 9862 9860 9858 9856 9855 9853 9852 9851 9850 9849 9849 9849 9849 9849 9849 9849 9849 9849 9850 9850 9851
10510 10501 10491 10480 10470 10459 10446 10427 10409 10396 10387 10374 10355 10338 10321 10300 10279 10263 10249 10232 10213 10199 10189 10178 10164 10152 10142 10129 10111 10094 10082 10070 10059 10049 10039 10029 10020 10011 10003 9994 9984 9975 9968 9961 9953 9945 9937 9930 9923 9918 9912 9907 9903 9899 9894 9890 9886 9882 9878 9875 9872 9869 9866 9863 9860 9858 9856 9854 9853 9851 9850 9848 9847 9846 9845 9845 9844 9844 9844 9845 9845 9845 9845 9846 9846 9846
10506 10497 10487 10476 10463 10451 10440 10430 10419 10405 10388 10368 10348 10330 10313 10294 10274 10256 10239 10225 10214 10205 10192 10177 10165 10154 10144 10134 10120 10104 10087 10072 10060 10050 10042 10033 10024 10014 10004 9994 9985 9975 9967 9959 9952 9945 9938 9930 9924 9918 9912 9907 9902 9897 9892 9888 9883 9880 9876 9873 9870 9867 9864 9861 9858 9855 9853 9852 9850 9848 9847 9846 9844 9843 9842 9841 9841 9841 9840 9840 9840 9840 9841 9841 9842 9842
10503 10491 10480 10470 10460 10447 10435 10425 10415 10400 10381 10362 10343 10325 10310 10300 10288 10270 10252 10239 10230 10217 10196 10178 10167 10155 10142 10131 10123 10111 10095 10080 10067 10056 10047 10038 10028 10016 10004 9994 9986 9978 9969 9960 9951 9943 9936 9929 9923 9917 9911 9906 9901 9896 9892 9887 9883 9879 9876 9872 9869 9866 9863 9860 9857 9854 9852 9850 9848 9846 9845 9843 9842 9841 9840 9839 9838 9837 9837 9837 9836 9836 9836 9837 9837 9837
10502 10491 10479 10468 10457 10444 10429 10414 10402 10389 10374 10359 10343 10327 10311 10295 10283 10278 10274 10259 10237 10214 10195 10180 10166 10153 10139 10125 10113 10104 10096 10085 10072 10061 10050 10039 10029 10018 10007 9996 9986 9977 9969 9961 9952 9943 9935 9929 9923 9917 9912 9907 9902 9897 9892 9887 9884 9880 9876 9872 9869 9865 9862 9859 9856 9853 9851 9849 9847 9845 9843 9841 9840 9839 9838 9837 9836 9835 9834 9834 9833 9833 9833 9833 9833 9833
10504 10494 10483 10469 10456 10444 10430 10415 10399 10383 10366 10352 10342 10332 10316 10298 10286 10280 10269 10249 10225 10206 10193 10180 10164 10148 10134 10121 10107 10096 10087 10078 10069 10058 10047 10034 10023 10013 10005 9996 9986 9977 9968 9961 9953 9945 9938 9931 9924 9918 9913 9908 9903 9898 9893 9888 9884 9880 9876 9872 9868 9865 9861 9858 9855 9853 9851 9848 9846 9844 9842 9840 9838 9837 9836 9835 9834 9833 9832 9832 9831 9830 9830 9830 9829 9830
10507 10495 10483 10471 10460 10448 10435 10420 10404 10388 10372 10358 10345 10332 10322 10315 10302 10279 10251 10231 10218 10206 10193 10179 10165 10149 10133 10118 10105 10093 10081 10070 10061 10051 10041 10031 10020 10010 10000 9992 9984 9977 9970 9963 9955 9948 9941 9933 9926 9920 9914 9909 9904 9898 9893 9888 9884 9880 9876 9872 9868 9864 9861 9858 9855 9852 9850 9848 9845 9843 9841 9839 9837 9836 9834 9833 9832 9831 9830 9830 9829 9828 9828 9827 9827 9827
10507 10494 10482 10471 10461 10450 10440 10430 10417 10402 10387 10372 10358 10343 10329 10315 10296 10273 10252 10237 10223 10209 10195 10183 10169 10154 10139 10123 10108 10094 10082 10071 10061 10050 10041 10031 10020 10010 10000 9991 9983 9976 9969 9963 9956 9948 9941 9934 9928 9921 9915 9909 9904 9898 9893 9888 9884 9880 9875 9872 9868 9864 9861 9858 9855 9852 9850 9847 9845 9842 9840 9838 9837 9835 9833 9832 9831 9830 9829 9828 9827 9827 9826 9826 9825 9825
10501 10490 10479 10469 10459 10448 10437 10424 10410 10396 10384 10371 10357 10342 10324 10305 10286 10272 10259 10247 10232 10218 10204 10188 10172 10157 10144 10130 10115 10101 10089 10077 10066 10055 10044 10033 10022 10011 10002 9994 9986 9979 9971 9964 9956 9949 9942 9935 9928 9921 9915 9909 9904 9899 9894 9889 9885 9880 9876 9872 9868 9865 9861 9858 9855 9852 9849 9846 9844 9842 9840 9838 9836 9834 9832 9831 9829 9828 9827 9827 9826 9825 9824 9824 9823 9822
10498 10489 10477 10461 10447 10436 10425 10413 10401 10389 10377 10363 10347 10332 10318 10303 10288 10273 10260 10248 10238 10226 10210 10193 10177 10161 10147 10134 10121 10108 10095 10083 10072 10061 10049 10038 10026 10016 10006 9998 9990 9983 9974 9966 9958 9950 9943 9936 9929 9922 9916 9910 9905 9900 9895 9890 9886 9882 9877 9873 9869 9866 9862 9859 9856 9853 9850 9847 9844 9842 9839 9837 9835 9833 9832 9830 9828 9827 9826 9825 9824 9823 9822 9822 9821 9821
10495 10484 10471 10458 10443 10428 10417 10407 10396 10383 10370 10358 10346 10335 10323 10311 10297 10282 10268 10254 10241 10226 10211 10196 10182 10169 10155 10141 10128 10115 10101 10088 10076 10065 10054 10043 10032 10022 10013 10004 9995 9986 9978 9970 9961 9953 9945 9937 9931 9924 9919 9913 9907 9902 9897 9892 9887 9883 9879 9874 9871 9867 9864 9860 9857 9854 9850 9847 9845 9842 9839 9837 9835 9833 9831 9829 9828 9826 9825 9824 9823 9822 9821 9820 9820 9819
10494 10482 10472 10463 10451 10437 10423 10411 10400 10389 10378 10366 10352 10338 10325 10314 10303 10291 10278 10262 10245 10229 10213 10198 10185 10173 10162 10148 10135 10122 10108 10095 10082 10070 10058 10047 10037 10027 10017 10007 9998 9989 9980 9972 9964 9957 9949 9942 9935 9928 9922 9915 9909 9904 9899 9894 9889 9884 9880 9876 9872 9868 9865 9862 9858 9855 9851 9848 9845 9843 9840 9838 9835 9833 9831 9829 9827 9826 9824 9823 9821 9820 9819 9819 9818 9818
10496 10486 10476 10465 10455 10446 10435 10424 10413 10403 10392 10379 10365 10351 10335 10320 10307 10295 10282 10266 10249 10232 10218 10205 10191 10177 10164 10152 10140 10127 10114 10101 10089 10076 10064 10052 10042 10032 10021 10011 10001 9992 9983 9975 9968 9960 9953 9945 9938 9931 9924 9918 9912 9906 9901 9896 9891 9886 9882 9878 9874 9870 9866 9862 9859 9855 9852 9849 9846 9843 9841 9838 9836 9834 9832 9830 9828 9826 9824 9822 9820 9819 9818 9817 9816 9816
10499 10489 10478 10467 10457 10449 10439 10428 10417 10405 10392 10380 10369 10358 10344 10329 10314 10300 10286 10270 10253 10236 10222 10210 10198 10184 10171 10159 10145 10131 10118 10106 10092 10079 10068 10056 10045 10035 10025 10015 10005 9996 9987 9979 9971 9964 9956 9948 9941 9934 9927 9920 9914 9908 9903 9898 9893 9889 9884 9880 9875 9871 9867 9863 9859 9856 9853 9850 9847 9844 9842 9839 9837 9835 9833 9831 9829 9827 9824 9822 9820 9819 9818 9817 9816 9815
10499 10489 10479 10471 10463 10454 10446 10437 10427 10416 10404 10391 10377 10363 10350 10337 10323 10308 10292 10276 10261 10245 10229 10215 10202 10190 10177 10163 10149 10135 10122 10108 10095 10081 10070 10059 10048 10038 10028 10019 10010 10000 9991 9982 9974 9966 9959 9952 9945 9937 9930 9923 9917 9911 9906 9901 9896 9891 9886 9881 9877 9872 9868 9864 9860 9857 9854 9851 9848 9846 9843 9840 9838 9836 9834 9831 9829 9827 9825 9823 9821 9819 9818 9817 9816 9815
10500 10491 10482 10475 10467 10459 10449 10438 10427 10415 10403 10391 10377 10363 10350 10337 10324 10312 10299 10285 10271 10256 10241 10224 10209 10195 10182 10167 10153 10139 10125 10111 10098 10085 10072 10061 10051 10041 10031 10021 10013 10004 9996 9987 9978 9969 9962 9955 9948 9941 9933 9926 9920 9914 9908 9903 9898 9893 9888 9883 9878 9874 9870 9866 9862 9858 9855 9853 9850 9847 9844 9841 9839 9836 9834 9832 9830 9827 9825 9823 9821 9819 9818 9817 9816 9815
10501 10492 10483 10472 10463 10454 10445 10434 10423 10412 10399 10386 10373 10360 10349 10338 10326 10314 10302 10290 10277 10264 10250 10236 10220 10205 10189 10174 10158 10144 10130 10117 10103 10090 10077 10064 10053 10043 10034 10024 10016 10008 9999 9991 9982 9973 9965 9957 9950 9943 9936 9929 9923 9917 9911 9905 9900 9895 9890 9885 9880 9876 9871 9867 9864 9860 9857 9854 9851 9848 9845 9842 9839 9837 9834 9832 9830 9828 9826 9823 9821 9819 9818 9817 9816 9815